Starlink 30708

operational
NORAD ID: 57944 Int'l Des: 2023-148 Owner: SPXS Country: US Constellation: starlink
LEOCIRCULAR

About Starlink 30708

Description loading...

Live Position

Loading 3D Globe...

Upcoming Passes

Altitude History

Altitude vs Time

uPlot chart will show altitude changes over time

Two-Line Element Set

1 57944U 23148K 25257.93378344 .00000995 00000-0 45719-4 0 9992
2 57944 53.1596 120.6282 0001108 98.9149 261.1977 15.30191423111512
Epoch: Sep 14, 2025 • Age: 22 hours

Current Status

Altitude 488.8 km
Velocity 7.62 km/s
Sub-Earth Point -39.35°S, 141.79°E
Launch Date Sep 25, 2023
Age 1.9 years
Type internet

Technical Details

Classification Payload
Mass 730.00 kg
Dry Mass 700.00 kg
Total Mass 730.00 kg
Length 0.30 m
Diameter 4.10 m
Span 29.00 m
Shape Box + pan
Manufacturer SPXS
Bus Type Starlink V2M
Phase Status In Orbit
Owner/State SPXS/US

Large Constellations

Loading constellations...